CW2613 Weather Reports


Display with metric or nautical units.
time (UTC)temp
F
wind
direction
speed
MPH
gust
MPH
rain 1hr
in
rain 24hr
in
rain mn
in
humidity
%
barometer
mb
20180925143045 84 160 0.0 0.0 0.00 0.22 0.07 85 1017.9
20180925141530 85 160 0.0 0.0 0.00 0.22 0.07 84 1017.8
20180925140036 85 177 0.0 3.0 0.00 0.22 0.07 82 1017.8
20180925134538 85 172 0.0 7.0 0.00 0.22 0.07 83 1017.5
20180925133018 85 98 0.0 3.0 0.00 0.22 0.07 87 1017.3
20180925131515 84 221 0.0 3.0 0.00 0.22 0.07 90 1017.2
20180925130015 81 248 0.0 1.0 0.02 0.22 0.07 94 1017.3
20180925124508 78 170 0.0 1.0 0.07 0.22 0.07 94 1017.2
20180925123015 77 144 0.0 1.0 0.07 0.22 0.07 96 1017.2
20180925121514 76 205 0.0 1.0 0.07 0.22 0.07 96 1017.0
20180925120001 77 109 0.0 4.0 0.04 0.19 0.04 97 1017.0
20180925110256 77 55 0.0 0.0 0.01 0.15 0.15 97 1016.4
20180925104609 77 55 0.0 4.0 0.00 0.14 0.14 97 1016.3
20180925103119 77 96 0.0 0.0 0.00 0.14 0.14 97 1016.2
20180925101605 77 96 0.0 1.0 0.00 0.14 0.14 97 1015.9
20180925100112 77 96 0.0 0.0 0.10 0.14 0.14 97 1016.0
20180925094606 77 96 0.0 0.0 0.12 0.14 0.14 96 1015.8
20180925093049 77 96 0.0 0.0 0.12 0.14 0.14 96 1015.7
20180925091615 77 108 0.0 0.0 0.13 0.14 0.14 95 1015.6
20180925084550 79 143 2.0 8.0 0.02 0.02 0.02 88 1015.8
20180925083037 79 70 0.0 2.0 0.02 0.02 0.02 91 1015.5
20180925081541 79 304 0.0 0.0 0.01 0.01 0.01 93 1015.5
20180925080111 79 304 0.0 0.0 0.00 0.00 0.00 93 1015.5
20180925074548 80 199 0.0 2.0 0.00 0.00 0.00 91 1015.4
20180925073048 80 178 0.0 3.0 0.00 0.00 0.00 90 1015.4
20180925071551 79 77 0.0 1.0 0.00 0.00 0.00 92 1015.4
20180925070030 80 113 0.0 3.0 0.00 0.00 0.00 91 1015.6
20180925064554 80 112 1.0 5.0 0.00 0.00 0.00 90 1015.8
20180925063052 80 165 0.0 2.0 0.00 0.00 0.00 91 1015.8
20180925061520 79 76 0.0 3.0 0.00 0.00 0.00 91 1016.0
20180925060022 79 87 0.0 1.0 0.00 0.00 0.00 91 1015.9
20180925054543 79 53 0.0 3.0 0.00 0.00 0.00 91 1016.1
20180925053016 79 81 0.0 3.0 0.00 0.00 0.00 92 1016.1
20180925051512 78 78 0.0 3.0 0.00 0.00 0.00 92 1016.4
20180925050015 78 64 0.0 0.0 0.00 0.00 0.00 90 1016.6
20180925044519 78 64 0.0 0.0 0.00 0.00 0.00 90 1016.7
20180925043034 79 64 0.0 2.0 0.00 0.00 0.00 89 1016.5
20180925041506 79 89 0.0 3.0 0.00 0.00 0.00 91 1016.8
20180925040003 78 73 0.0 3.0 0.00 0.00 0.00 94 1016.9
20180925034501 78 114 0.0 0.0 0.00 0.00 0.00 93 1016.9
20180925033001 78 114 0.0 0.0 0.00 0.00 0.00 93 1016.9
20180925031501 78 114 0.0 0.0 0.00 0.00 0.00 93 1017.1
20180925030141 79 114 0.0 0.0 0.00 0.00 0.00 91 1017.0
20180925024610 79 114 0.0 0.0 0.00 0.00 0.00 91 1017.0
20180925023154 79 47 0.0 1.0 0.00 0.00 0.00 90 1016.9
20180925021632 79 14 0.0 2.0 0.00 0.00 0.00 90 1016.7
20180925020121 79 110 0.0 2.0 0.00 0.00 0.00 90 1016.5
20180925014620 79 139 0.0 2.0 0.00 0.00 0.00 91 1016.5
20180925013113 79 210 0.0 1.0 0.00 0.00 0.00 90 1016.4
20180925011556 80 210 0.0 1.0 0.00 0.00 0.00 89 1016.0
20180925010111 80 58 0.0 2.0 0.00 0.00 0.00 88 1016.0